Weather History for Watford City, ND

Change the Weather History Date:

Sunday, October 14, 2012

  Actual Average (KISN) Record (KISN)
Temperature  
Mean Temperature 47 °F 44 °F  
Max Temperature 66 °F 58 °F 82 °F (1958)
Min Temperature 28 °F 31 °F 15 °F (2006)
Degree Days  
Heating Degree Days 18 21  
Month to date heating degree days 254  
Since 1 July heating degree days 600  
Cooling Degree Days 0 0  
Month to date cooling degree days 0  
Year to date cooling degree days 455  
Moisture  
Dew Point 34 °F    
Average Humidity 70    
Maximum Humidity 100    
Minimum Humidity 30    
Precipitation  
Precipitation 0.00 in 0.03 in 0.44 in (1975)
Month to date precipitation 0.44  
Year to date precipitation 12.62  
Sea Level Pressure  
Sea Level Pressure 29.92 in    
Wind  
Wind Speed 3 mph (West)    
Max Wind Speed 14 mph    
Max Gust Speed 18 mph    
Visibility 10 miles    
Events Rain    
T = Trace of Precipitation, MM = Missing Value Source: NWS Daily Summary

Daily Weather History Graph

Daily Weather History Graph

Search for Another Location

Airport:

Trip Planner

Search our weather history database for the weather conditions in past years. The results will help you decide how hot, cold, wet, or windy it might be!

Date:

Astronomy

Oct. 14, 2012 Rise Set
Actual Time 8:11 AM CDT 7:05 PM CDT
Civil Twilight 7:40 AM CDT 7:36 PM CDT
Nautical Twilight 7:04 AM CDT 8:12 PM CDT
Astronomical Twilight 6:28 AM CDT 8:48 PM CDT
Moon 7:12 AM CDT (10/14) 6:25 PM CDT (10/14)
Length of Visible Light 11h 56m
Length of Day
10h 54m
Waning Crescent, 1% of the Moon is Illuminated
Oct 14
Waning Crescent
Oct 15
New
Oct 21
First Quarter
Oct 29
Full
Nov 6
Last Quarter

Hourly Weather History & Observations

Time (CDT) Temp. Windchill Dew Point Humidity Pressure Visibility Wind Dir Wind Speed Gust Speed Precip Events Conditions
12:15 AM 41.0 °F - 35.6 °F 81% 29.94 in 10.0 mi Calm Calm - N/A   Scattered Clouds
12:35 AM 39.2 °F - 35.6 °F 87% 29.93 in 10.0 mi Calm Calm - N/A   Clear
12:55 AM 37.4 °F - 35.6 °F 93% 29.93 in 10.0 mi Calm Calm - N/A   Clear
1:15 AM 37.4 °F - 33.8 °F 87% 29.93 in 10.0 mi Calm Calm - N/A   Clear
1:35 AM 35.6 °F - 32.0 °F 87% 29.93 in 10.0 mi Calm Calm - N/A   Clear
1:55 AM 33.8 °F - 32.0 °F 93% 29.94 in 10.0 mi Calm Calm - N/A   Clear
2:35 AM 32.0 °F - 32.0 °F 100% 29.94 in 10.0 mi Calm Calm - N/A   Clear
2:55 AM 32.0 °F - 32.0 °F 100% 29.94 in 10.0 mi Calm Calm - N/A   Clear
3:15 AM 32.0 °F - 32.0 °F 100% 29.94 in 10.0 mi Calm Calm - N/A   Scattered Clouds
3:35 AM 32.0 °F 27.5 °F 32.0 °F 100% 29.94 in 10.0 mi SW 4.6 mph - N/A   Scattered Clouds
3:55 AM 32.0 °F - 32.0 °F 100% 29.94 in 10.0 mi Calm Calm - N/A   Partly Cloudy
4:15 AM 32.0 °F - 32.0 °F 100% 29.93 in 10.0 mi Calm Calm - N/A   Partly Cloudy
4:35 AM 32.0 °F - 32.0 °F 100% 29.93 in 10.0 mi Calm Calm - N/A   Scattered Clouds
4:55 AM 32.0 °F - 32.0 °F 100% 29.94 in 10.0 mi Calm Calm - N/A   Partly Cloudy
5:15 AM 32.0 °F - 32.0 °F 100% 29.93 in 10.0 mi Calm Calm - N/A   Clear
5:35 AM 32.0 °F 28.7 °F 30.2 °F 93% 29.95 in 10.0 mi NNW 3.5 mph - N/A   Clear
5:55 AM 32.0 °F - 30.2 °F 93% 29.95 in 10.0 mi Calm Calm - N/A   Clear
6:15 AM 30.2 °F - 28.4 °F 93% 29.95 in 10.0 mi Calm Calm - N/A   Clear
6:35 AM 30.2 °F - 30.2 °F 100% 29.95 in 10.0 mi Calm Calm - N/A   Clear
6:55 AM 28.4 °F - 28.4 °F 100% 29.95 in 10.0 mi Calm Calm - N/A   Clear
7:15 AM 28.4 °F - 28.4 °F 100% 29.96 in 10.0 mi Calm Calm - N/A   Partly Cloudy
7:35 AM 28.4 °F 23.3 °F 28.4 °F 100% 29.95 in 10.0 mi North 4.6 mph - N/A   Partly Cloudy
7:55 AM 28.4 °F 21.2 °F 28.4 °F 100% 29.96 in 10.0 mi WSW 6.9 mph - N/A   Clear
8:15 AM 28.4 °F 24.6 °F 28.4 °F 100% 29.96 in 10.0 mi SSW 3.5 mph - N/A   Partly Cloudy
8:35 AM 32.0 °F 25.6 °F 32.0 °F 100% 29.95 in 10.0 mi SW 6.9 mph - N/A   Scattered Clouds
8:55 AM 32.0 °F 25.6 °F 32.0 °F 100% 29.95 in 10.0 mi SW 6.9 mph - N/A   Partly Cloudy
9:15 AM 32.0 °F 25.6 °F 32.0 °F 100% 29.95 in 10.0 mi SW 6.9 mph - N/A   Scattered Clouds
9:35 AM 35.6 °F 32.8 °F 32.0 °F 87% 29.96 in 10.0 mi WSW 3.5 mph - N/A   Scattered Clouds
9:55 AM 37.4 °F 32.1 °F 35.6 °F 93% 29.95 in 10.0 mi SW 6.9 mph - N/A   Mostly Cloudy
10:15 AM 41.0 °F 38.0 °F 37.4 °F 87% 29.95 in 10.0 mi SSW 4.6 mph - N/A   Mostly Cloudy
10:35 AM 42.8 °F 39.3 °F 39.2 °F 87% 29.96 in 10.0 mi SW 5.8 mph - N/A   Scattered Clouds
10:55 AM 46.4 °F 42.4 °F 39.2 °F 76% 29.96 in 10.0 mi SW 8.1 mph - N/A   Mostly Cloudy
11:15 AM 48.2 °F - 39.2 °F 71% 29.96 in 10.0 mi West 12.7 mph - N/A   Mostly Cloudy
11:35 AM 50.0 °F - 39.2 °F 66% 29.95 in 10.0 mi WNW 6.9 mph - N/A   Scattered Clouds
11:55 AM 53.6 °F - 39.2 °F 58% 29.95 in 10.0 mi West 6.9 mph - N/A   Partly Cloudy
12:15 PM 55.4 °F - 39.2 °F 54% 29.95 in 10.0 mi West 9.2 mph - N/A   Clear
12:55 PM 57.2 °F - 39.2 °F 51% 29.94 in 10.0 mi West 12.7 mph 16.1 mph N/A   Clear
1:15 PM 59.0 °F - 39.2 °F 48% 29.93 in 10.0 mi West 13.8 mph - N/A   Clear
1:35 PM 59.0 °F - 39.2 °F 48% 29.93 in 10.0 mi West 10.4 mph 16.1 mph N/A   Clear
1:55 PM 60.8 °F - 39.2 °F 45% 29.92 in 10.0 mi West 10.4 mph - N/A   Clear
2:15 PM 62.6 °F - 39.2 °F 42% 29.92 in 10.0 mi WNW 8.1 mph - N/A   Partly Cloudy
2:35 PM 62.6 °F - 39.2 °F 42% 29.91 in 10.0 mi NW 10.4 mph - N/A   Partly Cloudy
2:55 PM 64.4 °F - 37.4 °F 37% 29.91 in 10.0 mi WNW 13.8 mph - N/A   Partly Cloudy
3:15 PM 64.4 °F - 37.4 °F 37% 29.90 in 10.0 mi NW 11.5 mph 17.3 mph N/A   Clear
3:35 PM 64.4 °F - 37.4 °F 37% 29.90 in 10.0 mi WNW 13.8 mph 18.4 mph N/A   Clear
3:55 PM 66.2 °F - 35.6 °F 32% 29.90 in 10.0 mi WNW 12.7 mph 18.4 mph N/A   Clear
4:15 PM 66.2 °F - 35.6 °F 32% 29.90 in 10.0 mi West 11.5 mph - N/A   Clear
4:35 PM 66.2 °F - 35.6 °F 32% 29.90 in 10.0 mi WNW 8.1 mph 17.3 mph N/A   Clear
4:55 PM 66.2 °F - 33.8 °F 30% 29.89 in 10.0 mi WNW 11.5 mph 17.3 mph N/A   Clear
5:15 PM 66.2 °F - 33.8 °F 30% 29.89 in 10.0 mi WNW 8.1 mph 17.3 mph N/A   Clear
5:35 PM 66.2 °F - 33.8 °F 30% 29.88 in 10.0 mi WNW 9.2 mph - N/A   Clear
5:55 PM 64.4 °F - 33.8 °F 32% 29.89 in 10.0 mi West 10.4 mph - N/A   Clear
6:15 PM 64.4 °F - 33.8 °F 32% 29.89 in 10.0 mi West 8.1 mph - N/A   Clear
6:55 PM 59.0 °F - 33.8 °F 39% 29.88 in 10.0 mi West 6.9 mph - N/A   Clear
7:15 PM 57.2 °F - 35.6 °F 44% 29.88 in 10.0 mi SW 3.5 mph - N/A   Clear
7:35 PM 53.6 °F - 32.0 °F 44% 29.88 in 10.0 mi WSW 4.6 mph - N/A   Clear
7:55 PM 50.0 °F - 33.8 °F 54% 29.88 in 10.0 mi SSW 8.1 mph - N/A   Clear
8:15 PM 50.0 °F - 32.0 °F 50% 29.88 in 9.0 mi SW 5.8 mph - N/A   Clear
8:35 PM 48.2 °F - 33.8 °F 58% 29.88 in 10.0 mi SSW 6.9 mph - N/A   Clear
8:55 PM 46.4 °F 44.3 °F 33.8 °F 62% 29.87 in 10.0 mi SSW 4.6 mph - N/A   Clear
9:15 PM 46.4 °F 44.3 °F 33.8 °F 62% 29.87 in 10.0 mi SW 4.6 mph - N/A   Clear
9:35 PM 46.4 °F 44.3 °F 33.8 °F 62% 29.86 in 10.0 mi SSW 4.6 mph - N/A   Mostly Cloudy
9:55 PM 46.4 °F - 35.6 °F 66% 29.85 in 10.0 mi Calm Calm - N/A   Mostly Cloudy
10:15 PM 48.2 °F - 33.8 °F 58% 29.84 in 10.0 mi Calm Calm - N/A   Mostly Cloudy
10:35 PM 48.2 °F - 35.6 °F 62% 29.84 in 10.0 mi Calm Calm - N/A   Overcast
10:55 PM 48.2 °F - 37.4 °F 66% 29.83 in 10.0 mi Calm Calm - N/A   Mostly Cloudy
11:15 PM 50.0 °F - 35.6 °F 58% 29.83 in 10.0 mi Calm Calm - N/A   Overcast
11:35 PM 51.8 °F - 37.4 °F 58% 29.83 in 10.0 mi Calm Calm - N/A Rain Light Rain
11:55 PM 51.8 °F - 37.4 °F 58% 29.82 in 10.0 mi Calm Calm - N/A   Overcast